Regional Weather Roundup
Issued by NWS

Home | Current Version | Previous Version | Graphics & Text | Print | Product List | Glossary On
Versions: 1 2 3 4 5 6 7 8 9 10 11 12 13 14 15 16 17 18 19 20 21 22 23 24 25 26 27 28 29 30 31 32 33 34 35 36 37 38 39 40 41 42 43 44 45
000
ASUS45 KBOU 251407
RWRCO

WEATHER ROUNDUP FOR COLORADO
NATIONAL WEATHER SERVICE DENVER/BOULDER CO
700 AM MST THU DEC 25 2014

NOTE: "FAIR" INDICATES FEW OR NO CLOUDS BELOW 12000 FEET WITH NO
SIGNIFICANT WEATHER AND/OR OBSTRUCTIONS TO VISIBILITY.

COZ001>005-013-030-031-251500-
...NORTHWEST COLORADO...

CITY           SKY/WX    TMP DP  RH WIND       PRES   REMARKS
CRAIG          LGT SNOW  28  25  88 E7        29.50S VSB 1   WCI  21
HAYDEN         CLOUDY    25  21  86 SE12      29.48S WCI  14
MEEKER         CLOUDY    30  23  75 CALM      29.49S
MOUNT WERNER   NOT AVBL
STEAMBOAT SPGS CLOUDY    20  19  94 CALM      29.48F
WALDEN         CLOUDY    28  21  74 S13G18    29.48R WCI  18
$$

COZ006>008-011-251500-
...WEST CENTRAL VALLEYS...

CITY           SKY/WX    TMP DP  RH WIND       PRES   REMARKS
GRAND JUNCTION CLOUDY    33  25  72 SE7       29.50F WCI  27
MONTROSE       MOCLDY    30  18  60 NE6       29.53F WCI  24
EAGLE          LGT SNOW  18  14  86 CALM      29.57F VSB 1
RIFLE          LGT SNOW  24  21  88 CALM      29.55F FOG
DELTA          CLOUDY    38  24  57 NW6       29.52F
NUCLA          CLOUDY    37  21  52 SW9G25    29.55S
$$

COZ017>023-064>068-251500-
...SOUTHWEST COLORADO...

CITY           SKY/WX    TMP DP  RH WIND       PRES   REMARKS
DURANGO        CLOUDY    26  15  63 NE3       29.63F
CORTEZ         CLOUDY    36  17  46 SW7       29.58F
PAGOSA SPRINGS CLOUDY    24  15  68 S5        29.66R WCI  19
TELLURIDE      CLOUDY    28  20  74 SE8       29.57S WCI  19
WOLF CREEK PAS HVY SNOW   9   9 100 MISG      29.59S VSB 1/4
$$

COZ009-010-012-014-032>034-037-058>063-251500-
...CENTRAL COLORADO...

CITY           SKY/WX    TMP DP  RH WIND       PRES   REMARKS
ASPEN          LGT SNOW  23  20  88 CALM      29.49S FOG
BUENA VISTA    CLOUDY    15   9  76 SE3       29.55S
COPPER MTN     LGT SNOW  23  16  74 S23       29.52S WCI   7
BERTHOUD PASS  FAIR      14   9  79 MISG      29.52S
COTTONWOOD PAS CLOUDY    21  12  68 CALM      29.52F
GUNNISON       CLOUDY     7   0  72 CALM      29.62F
KREMMLING      LGT SNOW  12   9  85 CALM      29.55S
LEADVILLE      CLOUDY    13  10  88 NW5       29.50F WCI   5
MONARCH PASS   LGT SNOW  12  10  92 MISG      29.63S
SALIDA         MOCLDY    29  11  46 SW10G18   29.62S WCI  20
SUNLIGHT       LGT SNOW N/A N/A N/A MISG      29.51S VSB 1
WILKERSON PASS PTCLDY    14  10  85 SW9       29.52F WCI   2
$$

COZ069>075-251500-
...SAN LUIS VALLEY/SANGRE DE CRISTO MOUNTAINS...

CITY           SKY/WX    TMP DP  RH WIND       PRES   REMARKS
ALAMOSA        PTCLDY     4  -1  80 VRB3      29.61F
LA VETA PASS   NOT AVBL
SAGUACHE       PTCLDY     3  -4  72 N6        29.62F WCI  -8
$$

COZ035-036-038>040-251500-
...NORTHERN COLORADO FRONT RANGE...

CITY           SKY/WX    TMP DP  RH WIND       PRES   REMARKS
DENVER INTL AP PTCLDY    33  18  53 E8        29.38R WCI  26
DMNS CITY PARK   N/A     30  17  58 N3        29.38R
AURORA         PTCLDY    35  18  50 SE3       29.38R
FRONT RANGE AP NOT AVBL
ERIE MUNI ARPT   N/A     21  16  82 S6        29.39S WCI  13
BOULDER MUN AP PTCLDY    30  18  59 CALM      29.40R
CENTENNIAL     PTCLDY    33  19  56 S8        29.38S WCI  26
BROOMFIELD     PTCLDY    30  18  59 NW5       29.38R WCI  25
FORT COLLINS   PTCLDY    27  16  63 NE5       29.42R WCI  21
LONGMONT       PTCLDY    27  18  67 NW3       29.41S
$$

COZ041-046-047-076>085-087-088-251500-
...PIKES PEAK/PALMER DIVIDE AND SOUTHERN FOOTHILLS...

CITY           SKY/WX    TMP DP  RH WIND       PRES   REMARKS
COLO. SPRINGS  PTCLDY    28  14  55 N8        29.43R WCI  20
A. F. ACADEMY  PTCLDY    34  14  44 VRB7      29.41F WCI  28
ELLICOTT       NOT AVBL
FALCON         PTCLDY    29  14  52 N6        29.44R WCI  23
FORT CARSON    PTCLDY    37  16  42 VRB2      29.42R
LIMON          PTCLDY    20  17  88 CALM      29.42R
MONUMENT HILL  CLEAR     36  14  41 CALM      29.42S
TRINIDAD       CLEAR     33  15  47 SW12      29.51S WCI  24
$$

COZ042>045-048>051-090-091-251500-
...NORTHEAST COLORADO...

CITY           SKY/WX    TMP DP  RH WIND       PRES   REMARKS
GREELEY ARPT   CLOUDY    21  10  63 CALM      29.41R
AKRON          PTCLDY    34  20  56 CALM      29.40R
BURLINGTON     PTCLDY    29  21  72 W10       29.40S WCI  20
WRAY           MOCLDY    25  23  91 SW5       29.41R WCI  20
STERLING       PTCLDY    27  23  86 W3        29.41R
HOLYOKE        MOCLDY    30  27  86 N9        29.41F WCI  22
FORT MORGAN    PTCLDY    23  19  87 NE5       29.42R WCI  16
$$

COZ086-089-092>099-251500-
...SOUTHEAST COLORADO...

CITY           SKY/WX    TMP DP  RH WIND       PRES   REMARKS
PUEBLO         CLEAR     36  15  42 VRB6      29.44S
LA JUNTA       PTCLDY    44  17  33 W24G33    29.44R
LAMAR          PTCLDY    28  21  75 S5        29.43R WCI  23
SPRINGFIELD      N/A     42  21  43 SW12      29.45F
$$



USA.gov is the U.S. government's official web portal to all federal, state and local government web resources and services.